Wind_Speed
34 34 34 33 30 28 28 29 29 28 28 27 25 25 24 23 23 22 21 21 20 18 17 16 16 16 16 15 14 13 12 12 12 12 13 13 14 14 15 14 13 13 13 13
36 36 35 35 33 32 30 30 29 29 30 29 28 28 27 26 26 25 24 23 23 22 21 19 18 18 17 17 15 15 14 14 14 14 15 16 16 16 16 16 15 15 15 15
38 36 36 36 35 36 35 33 31 31 30 31 32 30 30 30 29 27 26 25 25 25 24 23 22 21 20 18 18 17 17 17 16 17 17 18 18 18 19 18 17 17 17 17
38 37 39 35 35 36 38 36 34 33 32 33 33 32 32 32 31 30 29 29 29 29 29 27 25 24 23 21 20 20 19 19 19 20 20 20 21 20 21 20 20 20 19 19
37 38 38 36 36 38 39 39 38 37 37 36 35 35 35 33 33 33 32 32 32 32 31 30 28 26 25 23 22 22 21 21 21 22 22 23 23 22 22 22 22 21 20 20
38 38 39 38 37 38 41 42 40 40 39 38 37 37 37 35 34 34 34 34 33 33 32 31 29 26 25 26 26 25 23 23 23 23 24 24 24 24 24 23 23 23 22 22
38 38 39 38 38 38 41 43 41 40 39 38 37 37 37 37 37 38 37 36 35 32 31 30 29 28 27 27 27 27 26 26 26 26 26 25 26 26 25 25 25 24 24 24
39 39 40 38 38 39 40 40 40 40 40 39 38 38 38 39 38 38 38 37 37 35 33 32 31 30 29 30 29 29 29 29 28 28 28 28 28 28 29 29 29 28 28 28
39 39 39 37 38 38 39 40 40 41 41 41 40 39 39 39 39 39 38 38 38 37 35 34 33 32 33 33 31 31 32 30 30 30 30 30 31 31 32 32 32 32 29 29
39 39 39 38 38 39 39 38 38 39 40 41 41 40 40 39 39 39 39 39 37 37 36 35 35 35 34 33 32 33 34 32 32 32 33 33 33 33 33 33 33 33 32 32
40 40 40 40 41 41 39 38 39 40 41 40 41 41 41 41 41 40 38 37 37 37 37 36 35 36 36 36 35 35 35 35 35 35 35 35 35 35 35 34 35 34 33 33
40 41 41 41 41 42 42 42 40 39 40 41 41 42 42 42 41 40 40 38 38 38 38 39 39 38 38 37 38 37 37 38 38 38 37 38 37 36 35 35 35 34 33 34
40 42 43 42 41 43 42 41 41 41 41 43 43 44 43 42 43 42 41 41 40 39 39 40 40 39 39 39 38 39 39 39 40 39 38 37 37 37 37 37 36 36 36 36
39 39 40 41 42 43 43 43 42 43 44 43 43 44 44 42 42 42 42 42 41 40 40 40 40 39 40 39 39 39 39 40 39 39 39 38 38 38 37 37 37 38 37 38
36 37 38 38 39 41 41 42 42 41 41 41 41 43 42 40 40 42 43 42 41 41 40 40 40 40 40 39 39 39 40 40 40 40 40 39 38 38 38 38 38 39 38 39
34 35 36 36 37 37 37 39 39 39 38 38 38 38 39 39 39 39 39 40 41 40 39 39 39 40 40 40 40 40 41 40 39 39 39 39 39 39 39 39 39 39 39 39
31 33 35 35 34 34 35 35 34 36 36 35 34 34 34 34 35 36 37 38 38 38 38 39 39 39 39 40 40 40 40 40 39 39 39 39 39 39 38 38 38 38 39 39
30 30 31 32 32 32 32 33 33 32 33 32 31 32 32 31 31 33 34 35 36 37 37 36 36 37 38 38 38 37 37 37 37 37 38 39 38 38 37 36 37 38 38 39
26 27 29 30 30 31 31 31 30 30 29 28 28 30 31 31 32 32 33 34 34 33 33 34 35 35 36 37 36 36 36 36 37 37 37 38 38 38 37 37 38 39 39 39
23 24 25 27 28 28 28 28 28 28 27 27 27 28 30 32 32 33 33 32 33 33 33 34 34 35 35 35 34 35 36 36 36 36 37 37 37 36 36 37 38 38 38 37
19 20 21 21 23 25 25 25 25 26 26 26 27 27 28 29 30 30 30 31 31 31 32 33 33 33 33 32 32 33 34 34 34 35 35 36 36 36 35 36 36 36 36 36
16 17 17 18 19 20 21 22 22 22 24 24 25 25 26 27 27 27 27 28 28 28 29 29 29 30 31 31 31 31 32 32 33 34 34 35 34 34 34 34 35 35 35 35
15 15 16 16 17 18 18 19 19 20 20 21 22 23 23 24 24 24 24 25 25 26 27 28 28 27 27 28 28 29 30 31 31 32 32 32 32 32 32 32 33 33 34 33
13 14 14 15 16 17 17 17 18 18 18 19 20 20 21 21 22 22 23 23 23 24 24 24 24 24 25 25 26 26 27 28 29 29 30 30 30 30 30 30 31 31 32 32
12 12 13 13 14 15 15 15 15 16 17 17 17 17 17 18 18 18 19 19 20 20 21 21 21 21 21 22 23 23 24 25 26 27 28 28 28 28 29 29 29 29 29 29
9 10 11 12 12 13 13 13 13 14 14 14 14 14 15 15 16 16 17 16 17 17 17 17 18 18 18 20 20 22 23 23 24 25 25 25 25 26 26 27 27 28 28 29
7 8 8 9 9 9 10 10 10 10 10 11 11 11 11 11 11 12 13 13 13 13 14 16 16 16 16 18 19 20 21 22 23 23 23 23 23 24 24 25 26 27 27 28
Wind_Direction
230 227 225 226 225 226 232 238 240 241 243 245 248 254 257 262 268 273 280 286 287 286 288 290 292 292 293 297 298 303 308 311 313 316 318 319 320 321 320 317 314 310 308 311
236 234 232 230 228 228 232 235 238 240 240 243 246 249 253 257 263 270 278 283 284 284 283 283 285 286 287 287 289 294 299 302 303 306 309 312 314 316 316 313 310 308 305 305
239 237 237 233 231 231 231 233 235 238 241 243 244 246 251 255 260 263 271 277 281 282 281 280 278 283 280 280 281 284 287 291 295 298 302 303 306 309 309 306 304 304 301 301
244 240 239 235 233 234 234 234 237 239 242 245 246 247 251 255 257 262 268 273 278 279 278 276 275 279 277 275 275 277 281 285 289 292 295 297 298 300 302 301 298 298 297 296
244 241 239 235 234 234 235 235 236 239 242 244 247 249 252 255 258 263 265 270 275 276 276 274 274 277 277 275 275 276 276 278 283 287 289 292 295 296 297 296 296 294 294 294
244 244 241 237 236 237 237 237 237 239 242 246 247 249 253 255 259 263 266 269 271 273 273 275 275 275 276 276 276 279 279 278 281 283 284 287 292 294 293 294 295 291 291 293
245 245 244 241 238 239 241 241 241 242 244 245 246 251 255 256 259 263 264 268 271 271 272 273 274 272 273 274 276 279 281 282 281 281 282 283 288 288 291 295 295 292 290 291
245 245 244 243 242 240 242 244 244 243 244 246 248 251 254 257 259 263 265 268 270 271 271 271 272 270 270 270 272 276 277 278 279 279 281 283 285 288 292 293 294 293 293 291
245 247 247 245 245 244 244 245 245 245 245 246 247 249 253 256 260 263 264 265 266 268 270 269 268 268 268 268 270 273 275 275 277 278 280 281 283 287 289 290 291 292 290 292
246 248 249 247 247 246 246 246 246 245 246 247 248 251 253 256 258 260 264 264 265 266 268 266 267 267 270 269 271 273 276 278 277 278 279 281 283 285 286 287 289 289 288 292
246 248 249 249 249 249 248 248 247 246 246 247 248 250 253 255 256 259 261 261 264 265 265 266 267 268 269 271 272 275 277 277 277 278 279 281 283 284 286 287 287 288 290 291
245 247 250 251 250 250 250 250 251 249 247 247 248 250 253 255 256 258 260 261 263 264 266 267 268 269 270 272 271 273 274 275 276 276 279 280 282 284 284 285 286 288 289 290
247 247 249 251 252 251 253 254 255 253 250 248 250 251 255 255 255 258 260 263 263 264 266 268 269 270 270 271 272 273 274 275 276 277 279 281 281 282 283 283 285 286 288 288
249 249 249 251 253 253 254 255 256 258 256 253 253 253 255 255 255 258 260 263 264 264 265 267 268 269 270 271 272 273 275 277 278 279 280 280 280 281 281 282 284 286 287 287
249 251 251 252 253 253 254 256 258 258 255 254 255 256 256 256 257 258 261 263 263 264 265 267 268 268 270 270 272 274 275 277 278 279 281 280 280 279 279 280 283 284 285 285
249 251 252 253 254 254 256 258 259 259 257 256 256 256 257 255 256 259 262 263 264 265 266 267 268 268 269 270 272 274 274 274 277 278 281 281 280 280 280 281 282 283 283 284
252 252 253 254 255 256 256 257 259 261 260 259 258 257 258 257 257 259 261 263 265 266 268 268 268 268 269 270 272 273 274 274 275 278 280 280 280 280 281 281 281 282 283 283
253 255 255 255 256 256 255 256 258 261 260 260 259 261 261 261 262 263 264 264 264 266 268 268 269 269 270 271 272 274 275 276 277 277 280 281 281 281 280 280 281 282 283 283
258 258 257 255 257 258 258 257 257 259 260 260 260 261 261 264 266 267 267 266 267 268 269 270 271 271 272 272 272 274 277 277 278 278 279 280 282 284 283 284 284 285 284 283
262 262 261 260 259 259 260 259 258 260 261 262 262 263 263 264 265 266 267 268 268 269 270 271 272 272 272 271 271 273 276 277 278 279 280 281 282 284 284 284 284 285 285 285
264 262 262 262 260 261 262 263 263 263 263 263 264 266 267 267 268 268 268 268 269 270 270 271 271 270 270 272 273 274 275 276 277 279 280 281 282 282 283 284 284 285 286 286
266 264 263 262 262 263 264 263 264 264 264 264 264 266 267 268 267 267 268 269 270 271 272 273 272 271 271 272 273 273 274 276 278 280 281 281 282 282 283 283 285 286 286 287
268 266 264 262 261 261 261 259 260 261 262 264 265 267 267 267 267 267 268 270 271 273 273 273 274 274 273 274 275 275 276 278 280 281 282 282 282 283 284 285 286 287 288 288
271 272 269 265 261 262 263 261 260 261 263 265 267 268 268 266 265 266 267 268 270 272 273 274 275 275 274 273 275 276 278 280 282 283 284 285 284 284 284 285 286 287 288 288
272 271 270 269 267 266 265 262 261 262 264 263 265 268 268 267 267 266 268 270 271 273 274 275 276 276 275 275 276 277 279 281 283 285 286 286 286 286 285 286 287 287 288 289
275 274 272 271 271 268 265 263 262 264 265 266 268 269 270 269 266 266 267 268 272 274 274 275 275 275 276 278 280 281 282 283 284 286 286 287 289 289 289 289 289 289 289 289
289 288 285 280 274 266 263 262 261 262 266 269 270 270 270 271 267 266 268 270 271 273 277 280 281 281 281 281 282 283 284 286 287 287 288 289 290 290 291 291 291 292 293 293
Height
5873 5877 5880 5883 5886 5888 5889 5890 5893 5895 5896 5898 5899 5899 5899 5900 5901 5901 5902 5903 5904 5903 5903 5903 5903 5902 5900 5899 5898 5896 5895 5893 5891 5890 5888 5886 5884 5882 5880 5878 5876 5875 5873 5871
5866 5869 5872 5876 5879 5881 5883 5884 5885 5888 5889 5891 5892 5893 5893 5894 5895 5896 5897 5898 5898 5897 5897 5897 5897 5897 5896 5895 5894 5893 5891 5889 5888 5886 5884 5882 5880 5878 5876 5874 5872 5871 5869 5867
5858 5861 5864 5868 5872 5873 5875 5876 5878 5880 5883 5884 5885 5886 5887 5888 5889 5890 5891 5892 5892 5892 5891 5891 5891 5891 5890 5890 5889 5888 5887 5885 5883 5882 5880 5878 5876 5874 5872 5870 5868 5866 5864 5863
5849 5853 5855 5862 5863 5864 5866 5869 5870 5873 5875 5877 5878 5880 5881 5883 5884 5884 5885 5886 5886 5886 5885 5884 5884 5884 5883 5883 5883 5883 5882 5880 5879 5877 5875 5873 5871 5869 5867 5865 5863 5861 5859 5858
5839 5841 5845 5851 5854 5855 5856 5859 5863 5865 5868 5869 5872 5873 5874 5875 5877 5878 5879 5879 5879 5878 5878 5877 5877 5876 5876 5875 5876 5875 5874 5873 5872 5871 5869 5867 5865 5863 5861 5860 5858 5856 5854 5852
5829 5832 5835 5842 5845 5846 5848 5850 5854 5857 5859 5861 5863 5865 5867 5868 5870 5871 5872 5872 5871 5870 5870 5869 5869 5870 5870 5869 5868 5867 5866 5866 5865 5863 5861 5859 5859 5857 5855 5854 5852 5850 5848 5846
5819 5822 5825 5831 5834 5837 5840 5842 5845 5848 5851 5852 5854 5856 5858 5860 5861 5862 5863 5863 5863 5861 5861 5861 5862 5862 5862 5862 5861 5860 5859 5859 5857 5856 5853 5852 5852 5849 5848 5847 5846 5843 5841 5840
5809 5812 5817 5821 5824 5827 5829 5832 5835 5838 5840 5842 5844 5846 5848 5850 5851 5852 5853 5853 5853 5853 5853 5853 5854 5853 5853 5853 5852 5852 5851 5850 5849 5848 5847 5846 5845 5843 5841 5840 5838 5836 5834 5833
5801 5805 5807 5811 5813 5816 5820 5822 5825 5828 5830 5833 5835 5836 5838 5840 5841 5842 5843 5844 5844 5844 5845 5845 5845 5844 5844 5843 5841 5843 5842 5841 5841 5840 5839 5838 5837 5835 5834 5832 5830 5828 5826 5825
5791 5794 5797 5800 5802 5805 5809 5812 5815 5817 5819 5822 5824 5826 5827 5829 5831 5832 5833 5834 5834 5834 5834 5835 5836 5836 5835 5832 5831 5833 5833 5832 5832 5831 5830 5829 5828 5827 5825 5823 5821 5819 5818 5816
5782 5784 5787 5789 5792 5795 5799 5802 5804 5805 5807 5810 5812 5814 5816 5818 5819 5821 5821 5822 5822 5823 5823 5824 5825 5825 5825 5824 5824 5824 5823 5823 5822 5821 5820 5819 5818 5817 5815 5814 5812 5811 5809 5807
5772 5774 5777 5779 5781 5784 5787 5790 5792 5793 5794 5797 5800 5802 5803 5805 5807 5809 5811 5811 5812 5813 5813 5813 5814 5814 5813 5812 5812 5813 5813 5813 5812 5811 5809 5808 5807 5806 5805 5804 5802 5800 5799 5798
5762 5764 5766 5769 5770 5773 5775 5778 5780 5781 5782 5785 5787 5790 5790 5791 5794 5797 5799 5800 5801 5802 5802 5802 5803 5803 5803 5803 5803 5802 5802 5801 5800 5799 5798 5798 5797 5795 5794 5793 5791 5790 5789 5787
5752 5753 5756 5758 5760 5762 5764 5766 5768 5770 5772 5773 5774 5776 5779 5780 5781 5784 5786 5787 5788 5789 5790 5791 5791 5792 5792 5792 5792 5791 5790 5790 5789 5788 5787 5786 5785 5784 5783 5782 5781 5779 5778 5776
5742 5744 5745 5747 5749 5751 5752 5755 5757 5758 5760 5761 5762 5764 5766 5767 5768 5771 5773 5774 5776 5777 5777 5778 5779 5780 5780 5780 5780 5780 5779 5779 5778 5777 5775 5774 5773 5772 5771 5770 5769 5768 5766 5765
5733 5734 5736 5737 5738 5740 5742 5744 5746 5747 5749 5750 5752 5753 5754 5756 5757 5760 5761 5762 5763 5764 5765 5765 5767 5767 5768 5768 5768 5768 5768 5767 5766 5765 5764 5762 5761 5761 5759 5758 5757 5756 5755 5753
5724 5726 5727 5728 5729 5730 5732 5733 5735 5737 5739 5740 5742 5743 5745 5746 5748 5748 5750 5751 5752 5753 5754 5755 5755 5755 5755 5756 5757 5757 5756 5755 5755 5754 5753 5751 5750 5749 5748 5747 5746 5744 5743 5741
5715 5716 5718 5719 5720 5722 5722 5724 5726 5727 5728 5729 5732 5734 5735 5737 5737 5738 5739 5740 5741 5742 5742 5743 5743 5743 5743 5744 5745 5745 5745 5744 5744 5743 5743 5741 5739 5738 5737 5735 5734 5733 5731 5729
5706 5707 5709 5710 5712 5713 5714 5715 5717 5718 5719 5721 5723 5724 5726 5727 5728 5729 5729 5729 5730 5731 5732 5732 5732 5733 5733 5733 5734 5734 5734 5734 5733 5732 5732 5731 5729 5727 5726 5724 5723 5721 5719 5718
5698 5699 5700 5701 5703 5705 5706 5708 5709 5710 5711 5712 5713 5715 5716 5717 5718 5719 5719 5719 5720 5721 5721 5721 5722 5722 5722 5722 5723 5723 5723 5723 5722 5721 5721 5719 5718 5716 5715 5713 5712 5710 5708 5706
5692 5693 5693 5694 5695 5697 5698 5699 5701 5703 5704 5705 5706 5707 5707 5708 5709 5709 5709 5710 5710 5710 5711 5711 5712 5712 5712 5712 5712 5713 5713 5713 5712 5711 5710 5708 5707 5706 5704 5703 5701 5699 5697 5695
5687 5687 5687 5688 5689 5690 5692 5693 5694 5695 5696 5697 5698 5699 5699 5700 5700 5700 5700 5701 5701 5701 5702 5702 5702 5702 5703 5702 5703 5703 5703 5702 5701 5700 5699 5698 5696 5695 5694 5692 5690 5688 5686 5684
5682 5682 5682 5683 5683 5684 5686 5687 5688 5689 5690 5690 5691 5691 5692 5692 5691 5692 5692 5693 5693 5693 5693 5693 5693 5693 5693 5693 5693 5693 5693 5692 5691 5690 5689 5687 5686 5685 5683 5681 5679 5677 5675 5673
5677 5677 5677 5678 5678 5679 5680 5681 5682 5682 5683 5684 5684 5684 5684 5684 5684 5685 5685 5685 5686 5685 5685 5685 5684 5684 5684 5684 5685 5684 5684 5683 5682 5681 5679 5678 5677 5675 5673 5672 5670 5668 5666 5664
5674 5674 5674 5674 5674 5674 5675 5675 5676 5677 5677 5678 5678 5678 5678 5678 5678 5678 5678 5678 5678 5678 5678 5678 5678 5678 5677 5677 5677 5676 5676 5675 5674 5672 5671 5669 5667 5666 5664 5662 5660 5658 5656 5654
5670 5670 5670 5670 5670 5670 5671 5671 5671 5672 5672 5672 5673 5673 5673 5673 5673 5673 5673 5673 5673 5672 5672 5672 5672 5671 5671 5670 5670 5669 5668 5667 5666 5664 5662 5661 5659 5657 5655 5654 5652 5650 5648 5645
5668 5667 5667 5667 5667 5667 5667 5667 5667 5668 5668 5668 5669 5669 5669 5669 5668 5668 5668 5668 5668 5668 5668 5667 5667 5666 5665 5664 5663 5662 5661 5660 5658 5657 5655 5654 5652 5650 5648 5646 5643 5641 5638 5636